PAL2531 RPLL-RPVE

Flight info

Callsign PAL2531
Flight time 0h 33m
Altitude 25000
Route VERDE2R VERDE W24 TAPER TAPER7B
Aircraft A321/M-SDE3FGHIRWY/LB1

Departure

Time 2026-05-06 11:05
Airport Ninoy Aquino International Airport (RPLL)

Arrival

Time 2026-05-06 11:38
Airport Godofredo P. Ramos Airport (RPVE)
Time Latitude Longitude Altitude Speed Heading
2026-05-06 11:05 14.51144 121.11150 4003 ft 263 kts 187°
2026-05-06 11:05 14.49339 121.10819 4705 ft 267 kts 191°
2026-05-06 11:05 14.47518 121.10458 5438 ft 270 kts 190°
2026-05-06 11:05 14.45657 121.10160 6167 ft 273 kts 188°
2026-05-06 11:06 14.43762 121.09920 6894 ft 276 kts 186°
2026-05-06 11:06 14.41850 121.09721 7612 ft 279 kts 185°
2026-05-06 11:06 14.39925 121.09547 8322 ft 282 kts 185°
2026-05-06 11:06 14.37979 121.09388 9026 ft 285 kts 184°
2026-05-06 11:07 14.35980 121.09233 9728 ft 287 kts 184°
2026-05-06 11:07 14.34010 121.09086 10396 ft 291 kts 184°
2026-05-06 11:07 14.31933 121.08933 10816 ft 304 kts 184°
2026-05-06 11:07 14.29782 121.08777 11106 ft 320 kts 184°
2026-05-06 11:08 14.27506 121.08612 11388 ft 336 kts 184°
2026-05-06 11:08 14.25127 121.08441 11691 ft 349 kts 184°
2026-05-06 11:08 14.22682 121.08268 12229 ft 355 kts 184°
2026-05-06 11:08 14.20237 121.08095 12852 ft 357 kts 184°
2026-05-06 11:09 14.17739 121.07918 13452 ft 360 kts 184°
2026-05-06 11:09 14.15248 121.07741 14025 ft 363 kts 184°
2026-05-06 11:09 14.12712 121.07561 14593 ft 366 kts 184°
2026-05-06 11:09 14.10163 121.07380 15148 ft 369 kts 184°
2026-05-06 11:10 14.07634 121.07201 15683 ft 372 kts 184°
2026-05-06 11:10 14.05017 121.07015 16221 ft 375 kts 184°
2026-05-06 11:10 14.02430 121.06832 16736 ft 378 kts 184°
2026-05-06 11:10 13.99885 121.06651 17228 ft 381 kts 184°
2026-05-06 11:11 13.97241 121.06464 17724 ft 384 kts 184°
2026-05-06 11:11 13.94583 121.06276 18207 ft 386 kts 184°
2026-05-06 11:11 13.91904 121.06087 18679 ft 389 kts 184°
2026-05-06 11:11 13.89197 121.05895 19141 ft 392 kts 184°
2026-05-06 11:12 13.86455 121.05701 19596 ft 394 kts 184°
2026-05-06 11:12 13.83719 121.05508 20041 ft 397 kts 184°
2026-05-06 11:12 13.80966 121.05313 20480 ft 400 kts 184°
2026-05-06 11:12 13.78216 121.05119 20905 ft 402 kts 184°
2026-05-06 11:13 13.75399 121.05034 21306 ft 405 kts 174°
2026-05-06 11:13 13.72710 121.05830 21668 ft 408 kts 154°
2026-05-06 11:13 13.70229 121.07237 22138 ft 409 kts 149°
2026-05-06 11:13 13.67778 121.08743 22523 ft 412 kts 149°
2026-05-06 11:14 13.65294 121.10252 22903 ft 415 kts 149°
2026-05-06 11:14 13.62769 121.11750 23289 ft 417 kts 150°
2026-05-06 11:14 13.60238 121.13224 23667 ft 419 kts 150°
2026-05-06 11:14 13.57658 121.14707 24039 ft 422 kts 150°
2026-05-06 11:15 13.55053 121.16193 24405 ft 424 kts 151°
2026-05-06 11:15 13.52416 121.17690 24766 ft 427 kts 151°
2026-05-06 11:15 13.49789 121.19178 24991 ft 429 kts 151°
2026-05-06 11:15 13.47203 121.20640 24995 ft 428 kts 151°
2026-05-06 11:16 13.44604 121.22107 24997 ft 428 kts 151°
2026-05-06 11:16 13.41885 121.23395 24994 ft 428 kts 160°
2026-05-06 11:16 13.39064 121.24339 24998 ft 428 kts 163°
2026-05-06 11:16 13.36223 121.25210 24998 ft 428 kts 163°
2026-05-06 11:17 13.33348 121.26095 24998 ft 428 kts 163°
2026-05-06 11:17 13.30512 121.26990 24998 ft 428 kts 162°
2026-05-06 11:17 13.27695 121.27895 24999 ft 428 kts 162°
2026-05-06 11:17 13.24872 121.28815 24926 ft 428 kts 162°
2026-05-06 11:18 13.22036 121.29745 24674 ft 426 kts 162°
2026-05-06 11:18 13.19223 121.30672 24423 ft 424 kts 162°
2026-05-06 11:18 13.16452 121.31587 24176 ft 422 kts 162°
2026-05-06 11:18 13.13636 121.32519 23923 ft 421 kts 162°
2026-05-06 11:19 13.10867 121.33434 23673 ft 419 kts 162°
2026-05-06 11:19 13.08127 121.34341 23391 ft 415 kts 162°
2026-05-06 11:19 13.05378 121.35252 22859 ft 412 kts 162°
2026-05-06 11:19 13.02677 121.36146 22251 ft 410 kts 162°
2026-05-06 11:20 12.99998 121.37033 21693 ft 407 kts 162°
2026-05-06 11:20 12.97314 121.37921 21152 ft 403 kts 162°
2026-05-06 11:20 12.94670 121.38796 20617 ft 400 kts 162°
2026-05-06 11:20 12.92053 121.39661 20087 ft 397 kts 162°
2026-05-06 11:21 12.89430 121.40529 19556 ft 394 kts 162°
2026-05-06 11:21 12.86843 121.41384 19031 ft 391 kts 162°
2026-05-06 11:21 12.84226 121.42249 18506 ft 387 kts 162°
2026-05-06 11:21 12.81667 121.43095 17993 ft 384 kts 162°
2026-05-06 11:22 12.79097 121.43944 17479 ft 382 kts 162°
2026-05-06 11:22 12.76592 121.44771 16978 ft 379 kts 162°
2026-05-06 11:22 12.74076 121.45602 16478 ft 376 kts 162°
2026-05-06 11:22 12.71600 121.46420 15987 ft 373 kts 162°
2026-05-06 11:23 12.69176 121.47220 15508 ft 371 kts 162°
2026-05-06 11:23 12.66716 121.48032 15022 ft 368 kts 162°
2026-05-06 11:23 12.64302 121.48829 14545 ft 365 kts 162°
2026-05-06 11:23 12.61906 121.49619 14064 ft 363 kts 162°
2026-05-06 11:24 12.59539 121.50401 13583 ft 360 kts 162°
2026-05-06 11:24 12.57170 121.51182 13116 ft 357 kts 162°
2026-05-06 11:24 12.55579 121.51707 12937 ft 356 kts 162°
2026-05-06 11:25 12.45313 121.55091 11839 ft 351 kts 162°
2026-05-06 11:25 12.43017 121.55847 11592 ft 350 kts 162°
2026-05-06 11:26 12.40715 121.56606 11342 ft 349 kts 162°
2026-05-06 11:26 12.38393 121.57372 11093 ft 348 kts 162°
2026-05-06 11:26 12.36108 121.58124 10844 ft 346 kts 162°
2026-05-06 11:26 12.33836 121.58871 10595 ft 345 kts 162°
2026-05-06 11:27 12.31555 121.59622 10352 ft 343 kts 162°
2026-05-06 11:27 12.29333 121.60353 10087 ft 333 kts 162°
2026-05-06 11:27 12.27864 121.60837 9910 ft 327 kts 162°
2026-05-06 11:27 12.25747 121.61533 9788 ft 314 kts 162°
2026-05-06 11:28 12.23714 121.62202 9686 ft 300 kts 162°
2026-05-06 11:28 12.21161 121.63042 9570 ft 287 kts 162°
2026-05-06 11:28 12.19254 121.63670 9398 ft 286 kts 162°
2026-05-06 11:28 12.17364 121.64292 9189 ft 285 kts 162°
2026-05-06 11:29 12.15490 121.64909 8907 ft 284 kts 162°
2026-05-06 11:29 12.13597 121.65531 8583 ft 283 kts 162°
2026-05-06 11:29 12.11700 121.66155 8243 ft 281 kts 162°
2026-05-06 11:29 12.09863 121.66758 7909 ft 280 kts 162°
2026-05-06 11:30 12.08628 121.67164 7682 ft 278 kts 162°
2026-05-06 11:30 12.06193 121.67964 7231 ft 276 kts 162°
2026-05-06 11:30 12.04377 121.68561 6894 ft 275 kts 162°
2026-05-06 11:30 12.02555 121.69160 6556 ft 273 kts 162°
2026-05-06 11:31 12.00770 121.69746 6223 ft 271 kts 162°
2026-05-06 11:31 11.98971 121.70337 5887 ft 270 kts 162°
2026-05-06 11:31 11.97187 121.70922 5554 ft 268 kts 162°
2026-05-06 11:31 11.95433 121.71498 5226 ft 266 kts 162°
2026-05-06 11:32 11.93666 121.72078 4896 ft 264 kts 162°
2026-05-06 11:32 11.91922 121.72665 4567 ft 262 kts 160°
2026-05-06 11:32 11.90254 121.73363 4244 ft 260 kts 155°
2026-05-06 11:32 11.88631 121.74183 4131 ft 249 kts 153°
2026-05-06 11:33 11.87120 121.74970 4104 ft 238 kts 153°
2026-05-06 11:33 11.85630 121.75748 4045 ft 230 kts 153°
2026-05-06 11:33 11.84315 121.76601 3912 ft 218 kts 133°
2026-05-06 11:33 11.83767 121.77904 3729 ft 205 kts 91°
2026-05-06 11:34 11.84150 121.79262 3453 ft 197 kts 62°
2026-05-06 11:34 11.84805 121.80451 3194 ft 191 kts 60°
2026-05-06 11:34 11.85448 121.81600 2948 ft 184 kts 60°
2026-05-06 11:34 11.85656 121.81980 2869 ft 182 kts 60°
2026-05-06 11:35 11.86060 121.82735 2714 ft 177 kts 61°
2026-05-06 11:36 11.88959 121.88434 1463 ft 148 kts 63°
2026-05-06 11:36 11.89433 121.89380 1264 ft 148 kts 63°
2026-05-06 11:36 11.89898 121.90305 1070 ft 148 kts 63°
2026-05-06 11:37 11.90209 121.90926 940 ft 147 kts 63°
2026-05-06 11:37 11.90836 121.92177 679 ft 147 kts 63°
2026-05-06 11:37 11.91297 121.93096 482 ft 146 kts 63°
2026-05-06 11:37 11.91765 121.94022 279 ft 146 kts 62°
2026-05-06 11:38 11.92230 121.94939 74 ft 145 kts 63°
2026-05-06 11:38 11.92654 121.95782 31 ft 116 kts 65°
2026-05-06 11:38 11.92879 121.96237 31 ft 32 kts 63°
2026-05-06 11:38 11.92932 121.96345 31 ft 14 kts 63°
2026-05-06 11:39 11.92947 121.96440 31 ft 13 kts 111°
2026-05-06 11:39 11.92896 121.96471 31 ft 13 kts 178°